📊 Raw Sensor Data
Showing records 40476 to 40500 of 84,964 total
| ID | Distance (ft) | Battery V | Battery A | Int Temp (°F) | Int Humid (%) | Ext Temp (°F) | Solar V | RSSI | SNR | Time Stamp |
|---|---|---|---|---|---|---|---|---|---|---|
| 44501 | 15.7 | 3.94 | 0 | 86 | 42 | 80 | 5.10 | -69 | 7 | 06/25/2025 01:15 PM |
| 44500 | 15.7 | 3.94 | 0 | 85 | 42 | 83 | 5.10 | -69 | 8 | 06/25/2025 01:00 PM |
| 44499 | 15.7 | 4.11 | 0 | 82 | 42 | 76 | 5.10 | -69 | 8 | 06/25/2025 12:45 PM |
| 44498 | 15.7 | 3.94 | 0 | 80 | 43 | 76 | 5.10 | -69 | 8 | 06/25/2025 12:30 PM |
| 44497 | 15.7 | 3.95 | 0 | 79 | 43 | 76 | 5.10 | -68 | 7 | 06/25/2025 12:15 PM |
| 44496 | 15.8 | 4.04 | 0 | 78 | 43 | 79 | 5.10 | -67 | 8 | 06/25/2025 12:00 PM |
| 44495 | 15.8 | 3.94 | 0 | 77 | 43 | 74 | 5.10 | -67 | 7 | 06/25/2025 11:45 AM |
| 44494 | 15.8 | 3.94 | 0 | 77 | 43 | 76 | 5.10 | -68 | 7 | 06/25/2025 11:30 AM |
| 44493 | 15.8 | 3.94 | 0 | 76 | 43 | 77 | 5.10 | -67 | 8 | 06/25/2025 11:15 AM |
| 44492 | 15.8 | 3.94 | 0 | 76 | 42 | 75 | 5.10 | -67 | 8 | 06/25/2025 11:00 AM |
| 44491 | 15.8 | 3.99 | 0 | 75 | 42 | 78 | 5.10 | -68 | 7 | 06/25/2025 10:45 AM |
| 44490 | 15.8 | 3.94 | 0 | 73 | 42 | 74 | 5.10 | -66 | 8 | 06/25/2025 10:30 AM |
| 44489 | 15.8 | 4.01 | 0 | 72 | 43 | 76 | 5.10 | -69 | 8 | 06/25/2025 10:15 AM |
| 44488 | 15.8 | 3.94 | 0 | 70 | 43 | 70 | 5.10 | -70 | 7 | 06/25/2025 10:00 AM |
| 44487 | 15.8 | 4.12 | 0 | 70 | 43 | 70 | 5.10 | -67 | 7 | 06/25/2025 09:45 AM |
| 44486 | 15.8 | 3.94 | 0 | 69 | 43 | 73 | 5.10 | -68 | 7 | 06/25/2025 09:30 AM |
| 44485 | 15.8 | 3.94 | 0 | 68 | 43 | 67 | 5.10 | -69 | 8 | 06/25/2025 09:15 AM |
| 44484 | 15.8 | 3.94 | 0 | 67 | 43 | 71 | 5.10 | -69 | 8 | 06/25/2025 09:00 AM |
| 44483 | 15.8 | 3.94 | 0 | 65 | 43 | 70 | 5.10 | -70 | 8 | 06/25/2025 08:45 AM |
| 44482 | 15.8 | 3.97 | 0 | 64 | 43 | 68 | 5.10 | -67 | 8 | 06/25/2025 08:30 AM |
| 44481 | 15.8 | 3.94 | 0 | 62 | 42 | 67 | 5.10 | -69 | 8 | 06/25/2025 08:15 AM |
| 44480 | 15.8 | 3.94 | 5 | 60 | 42 | 65 | 5.10 | -70 | 8 | 06/25/2025 08:00 AM |
| 44479 | 15.6 | 3.98 | 5 | 58 | 42 | 62 | 5.10 | -69 | 7 | 06/25/2025 07:45 AM |
| 44478 | 15.6 | 4.01 | 39 | 57 | 41 | 60 | 4.50 | -70 | 8 | 06/25/2025 07:30 AM |
| 44477 | 15.6 | 3.99 | 15 | 56 | 41 | 57 | 4.50 | -68 | 7 | 06/25/2025 07:15 AM |